STARLINK-1067, 44771

Orbit data source: Space-Track

STARLINK-1067, 44771 is a payload satellite owned by SpaceX/Seattle (US) in LEO that was launched on Mon, 11 Nov 2019 UTC via an FALCON 9 launch vehicle from the Air Force Eastern Test Range (AFETR). Payload-class satellites include a variety of spacecraft equipped with specific instruments for various scientific and technological missions. These include communications satellites like Starlink; space stations such as the ISS; scientific satellites like the Hubble; Earth observation satellites from companies like Planet Labs, Umbra, and HawkEye 360; GPS; miniature CubeSats for education and research; and military/defense satellites.

Loading next visibility...
Identifier
44771, 2019-074BL
Orbit
LEO
Country
Flag of USUS
Related business
Manufacturer
SpaceX/Seattle
Mission
Operational Commercial Communications
Bus & Motor
STARLINK, Unknown motor
Mass
260 kg wet, ~248 kg dry
Launch date (UTC)
2019-11-11 (6 years ago)
Launch vehicle
FALCON 9
Launch site
Air Force Eastern Test Range (AFETR)
Object type
Payload
Rocket body
Debris
Shape & HBR
Box + 1 Pan, 4.4 m
Radar Cross Section
13.562 m², Large (>1 m²)

Expand to show TLE details & history
Last TLE update: 20 hours ago

TLE from 20 hours ago
0 STARLINK-1067
1 44771U 19074BL  25257.39541048  .00005892  00000-0  41398-3 0  9991
2 44771  53.0540 298.0377 0001381  70.4967 289.6172 15.06414130321628
Epoch: 2025-09-14T09:29Z
TLE epoch observation values (Epoch: 2025-09-14T09:29:23.465Z)
Latitude
0.00005°
Longitude
162.07494°
Altitude
547.726 km
Speed
7.59 km/s
True Right ascension
19h 52m 09s
True Declination
0° 00' 00"
Sunlit
Object was in full shadow at epoch
Visualization orbit readout
Latitude
Unknown
Longitude
Unknown
Altitude
Unknown
Speed
Unknown
Apparent Right ascension
Unknown
Apparent Declination
Unknown
Sunlit
N/A
Visualization observer readout
Local Sidereal Time
21:43:21
Azimuth
Unknown
Elevation
Unknown
Doppler factor
Unknown
Orbital elements
Apogee altitude
548.395 km
Perigee altitude
546.483 km
Semi-major axis
6,925.576 km
Eccentricity
0.00014
Inclination
53.054°
RAAN
298.0377°
Arg. of periapsis
70.4967°
True anomaly
289.60229°
Mean anomaly
289.6172°
Eccentric anomaly
289.60975°
Mean motion
3.76582 °/min
Orbital period
95.6 mins
BSTAR
0.00041398
Loading maneuver chart data...
Computing Atmospheric mass density...

Documentation

Showing up to 5 results
|